Theta_e
305 306 306 306 306 306 306 305 305 305 305 305 309 309 309 309 309 316 320 315 313 315 318 317 318 318 318 320 322 323 325 327 330 332 334 330 334 343 341 345 349 348 347 347 349
306 307 308 307 308 307 306 306 306 305 304 308 311 311 310 310 318 321 318 312 313 315 318 317 318 318 319 320 321 321 323 327 328 328 328 328 325 326 332 336 345 347 348 348 349
308 308 309 309 309 308 307 306 306 305 306 309 311 311 309 311 323 325 315 313 312 313 317 316 317 318 319 320 320 321 322 325 327 327 327 326 324 324 326 330 336 344 349 349 349
309 309 310 310 310 309 307 306 305 305 307 309 311 309 309 320 326 323 314 316 315 316 315 316 318 318 318 319 320 320 320 322 324 324 324 325 323 323 325 329 337 340 345 350 351
310 310 310 310 310 310 307 306 306 307 308 311 310 308 316 322 320 321 316 316 317 314 317 319 319 318 319 319 318 319 320 320 321 321 322 323 322 322 324 327 335 341 346 350 350
310 310 310 311 311 310 307 307 307 309 311 311 309 309 320 322 320 322 323 319 316 316 318 319 320 320 319 319 320 320 320 320 320 321 321 321 322 327 329 333 335 344 346 349 349
310 310 310 311 311 310 308 308 308 311 311 309 309 315 319 320 323 322 318 318 316 317 318 319 319 320 320 320 320 320 319 320 321 322 322 321 322 325 329 332 335 344 347 348 349
310 310 310 311 311 310 308 309 309 312 311 309 314 322 319 318 324 321 320 322 319 316 318 320 320 320 320 320 320 320 321 322 322 323 321 322 325 325 332 335 336 338 345 348 349
310 310 310 310 311 311 309 317 313 312 315 314 324 325 321 316 323 323 323 324 323 322 321 317 320 320 319 320 320 321 323 324 323 327 324 323 324 334 338 337 337 344 347 347 349
309 309 310 310 311 310 311 317 315 320 320 320 323 326 324 323 320 323 323 323 322 321 320 320 320 321 320 321 322 323 323 323 324 327 331 333 336 338 340 337 338 340 342 346 348
308 309 309 310 311 311 314 319 321 323 323 322 322 322 323 322 318 322 323 323 322 323 325 324 324 325 324 324 323 323 323 323 324 329 335 335 337 339 339 340 341 343 342 342 346
308 308 309 310 311 313 316 322 321 318 321 319 319 320 321 322 319 321 321 322 323 325 325 326 326 326 324 323 323 323 323 325 330 331 335 334 336 337 337 338 342 344 345 345 343
307 308 308 309 312 315 318 321 318 318 322 319 320 322 322 323 321 321 322 322 325 325 326 327 326 324 323 324 324 323 324 324 326 329 326 332 336 336 336 336 337 341 342 344 345
307 308 308 309 316 316 322 319 318 317 324 320 321 323 324 324 322 321 321 323 324 325 326 327 327 324 324 324 324 325 324 324 324 326 328 330 333 336 336 335 336 339 344 344 346
307 308 308 309 315 319 321 317 317 320 323 321 322 323 324 322 321 321 321 323 324 324 325 328 327 326 325 327 324 326 324 325 325 326 325 329 328 336 334 334 336 339 343 344 346
307 308 309 312 314 316 316 318 320 324 326 323 322 323 322 321 321 321 322 322 323 324 326 328 329 329 329 325 325 325 326 327 327 325 329 330 329 333 334 334 336 337 342 344 345
308 309 309 309 317 314 317 322 321 323 325 323 321 322 322 322 322 322 322 323 323 323 326 325 327 327 328 327 327 326 329 330 329 328 330 329 328 335 332 333 334 335 340 343 345
308 310 311 310 315 314 321 323 320 319 325 322 322 322 322 322 322 322 323 323 324 324 324 326 327 327 326 326 328 328 328 329 331 329 328 329 329 335 332 332 333 334 341 344 346
309 314 317 319 318 316 323 320 317 322 324 323 321 323 323 322 323 323 324 324 324 325 326 325 327 326 325 325 327 329 330 330 331 330 328 327 328 331 330 330 331 332 339 341 344
312 315 321 317 317 320 322 318 318 322 324 323 323 324 324 323 323 324 325 326 326 326 327 327 327 325 325 325 325 328 329 330 330 330 330 326 326 327 330 328 328 330 335 339 338
314 319 319 318 319 322 320 318 318 322 323 324 324 325 324 325 323 323 326 327 326 327 327 328 329 327 324 326 325 324 324 327 328 327 328 328 325 328 327 328 327 328 333 337 336
316 318 318 319 323 322 320 319 316 321 323 323 323 325 326 326 325 325 328 329 325 327 328 330 332 330 327 325 322 325 324 324 325 324 325 326 322 327 330 331 332 330 332 336 337
318 318 319 320 324 323 323 321 321 321 323 323 324 325 326 327 328 328 328 324 324 326 329 329 331 333 329 326 325 325 326 327 327 328 325 325 324 327 329 328 327 326 327 331 337
319 318 322 323 322 325 324 322 322 321 321 322 324 325 326 326 327 329 328 324 324 325 321 326 332 331 328 328 325 326 324 325 326 327 323 323 324 326 326 326 325 323 322 328 336
318 320 320 324 325 324 324 322 322 322 321 322 325 325 326 328 326 327 328 326 324 322 325 330 331 329 326 325 323 324 324 323 325 325 325 323 321 321 322 323 323 324 323 326 334
318 319 318 321 321 323 319 324 322 322 322 323 324 325 326 327 326 326 327 327 327 326 328 328 330 328 326 324 325 324 323 323 324 324 324 323 323 323 324 324 325 327 328 329 335
314 314 318 314 322 323 323 323 322 320 320 321 323 324 324 324 324 325 327 328 329 328 329 330 327 329 327 325 326 326 326 325 325 325 325 327 325 324 323 323 326 330 330 332 336
Wind_Speed
15 16 16 17 17 17 17 16 16 16 14 11 10 10 10 9 9 4 2 1 8 11 12 15 10 10 8 6 5 4 6 8 6 6 7 4 2 4 4 3 6 5 0 5 23
16 16 17 18 19 19 18 17 16 14 10 9 9 8 9 9 5 5 1 7 15 14 12 13 12 13 7 6 5 8 7 5 5 2 2 7 4 6 5 5 8 8 6 15 24
17 18 18 19 20 20 18 16 15 11 7 9 8 7 7 6 7 7 8 11 17 12 7 7 10 10 7 7 6 6 6 4 6 4 9 10 9 6 8 9 6 8 12 17 22
18 19 19 21 21 20 18 15 11 8 7 8 7 7 4 4 2 4 13 10 13 8 11 11 10 9 6 8 7 7 6 7 5 5 8 10 8 8 9 9 2 1 11 17 19
19 20 21 22 21 20 17 13 9 8 8 6 6 4 2 6 7 5 13 13 10 11 11 7 8 6 5 3 6 9 4 5 8 8 8 11 12 12 15 6 1 4 11 16 17
20 22 23 23 21 20 16 12 8 7 5 4 3 1 4 5 3 11 10 11 9 10 7 5 1 2 3 2 7 2 5 7 6 8 8 10 9 4 7 10 6 6 10 12 13
21 23 24 23 21 19 15 10 7 4 2 2 1 1 5 7 5 11 10 5 10 7 5 2 1 6 2 5 2 6 9 8 7 3 5 5 11 10 7 8 7 8 7 6 9
22 24 24 24 22 18 13 10 7 2 1 0 1 2 3 5 6 9 9 6 7 6 2 2 3 3 5 0 6 8 6 10 6 3 3 6 14 7 9 9 7 5 3 4 7
23 25 25 24 22 17 10 5 1 2 1 1 1 5 8 5 5 10 9 6 8 6 5 2 4 3 5 10 8 7 7 8 9 5 2 6 9 13 10 7 4 4 2 4 5
24 25 25 24 22 14 5 1 3 2 2 1 3 5 5 4 7 9 10 6 4 8 6 7 6 6 6 10 3 7 8 7 4 5 3 1 7 7 6 5 3 1 2 5 8
25 26 26 25 22 9 1 1 5 4 6 5 2 3 8 6 7 9 9 9 7 7 4 5 10 3 6 4 4 2 1 2 5 4 3 7 10 12 12 14 13 11 5 1 7
26 26 26 25 19 3 1 3 5 4 3 4 4 4 4 3 10 11 9 8 6 6 4 7 6 4 0 3 2 2 3 8 10 6 1 7 12 12 13 13 16 15 12 9 5
26 27 26 25 11 2 3 2 6 4 5 4 3 4 5 9 7 13 11 4 5 5 2 7 7 1 5 7 7 3 3 5 3 5 2 5 10 9 8 11 13 15 14 14 10
26 27 26 22 0 4 3 3 6 5 5 7 9 6 7 5 6 3 9 3 5 3 3 5 3 5 7 5 8 6 2 2 3 8 2 3 3 9 5 9 11 13 14 15 14
26 28 24 18 9 4 2 8 2 4 4 10 8 6 5 6 15 7 6 5 4 4 7 8 3 5 4 6 3 8 2 4 4 5 7 6 9 10 3 7 11 12 12 12 12
26 28 23 8 5 6 7 5 5 5 4 8 8 10 11 8 5 8 8 4 1 3 1 6 2 4 5 5 2 0 5 6 8 4 8 5 8 7 7 7 7 9 10 8 9
27 26 18 7 2 4 7 4 4 5 4 8 11 11 14 12 10 12 11 10 6 9 10 5 4 4 3 7 5 6 7 6 3 3 5 3 8 11 8 6 7 7 8 8 7
30 21 7 7 5 5 4 5 6 2 6 3 5 11 12 12 9 9 10 8 5 7 7 8 8 1 4 6 8 2 5 7 3 2 4 5 2 7 5 4 3 4 6 7 5
26 6 3 2 7 5 6 7 2 3 3 5 8 14 9 9 4 9 10 6 5 7 4 6 4 6 5 5 6 5 5 7 7 4 7 4 5 9 7 7 5 4 3 4 4
16 6 1 1 6 7 6 5 2 1 2 4 11 7 14 13 10 8 11 2 6 5 4 2 3 4 5 3 3 5 4 5 6 4 4 5 4 2 10 7 7 6 5 4 3
4 4 3 4 3 5 7 4 3 2 2 3 4 6 8 8 12 9 8 5 3 4 7 4 6 8 4 4 5 3 7 3 4 6 9 8 3 5 3 3 6 6 5 4 3
5 4 3 4 6 3 8 4 1 3 3 4 3 1 8 7 9 9 9 2 0 3 5 3 4 7 1 3 3 5 4 3 6 3 4 7 12 5 2 5 5 3 3 6 3
5 3 1 4 6 7 4 5 2 4 3 3 5 2 2 5 4 5 5 3 2 3 4 5 5 8 6 6 6 6 5 4 4 5 11 10 6 6 7 5 3 3 5 3 4
4 4 4 4 1 6 7 6 6 2 2 2 1 3 6 6 1 7 7 3 2 3 3 2 3 10 11 9 5 5 9 9 9 8 12 12 15 9 10 10 11 9 8 8 8
3 1 4 5 8 5 4 2 7 5 2 2 4 7 8 6 6 6 5 7 5 5 3 3 8 7 10 8 8 12 15 14 15 16 15 15 16 12 12 13 12 12 12 11 9
4 3 3 2 1 7 5 7 4 4 2 5 5 4 4 6 6 6 6 5 6 5 4 2 7 8 13 12 12 16 17 17 18 18 18 17 19 15 12 8 10 9 9 9 9
0 2 4 3 5 7 8 7 6 3 2 2 0 4 6 5 4 6 5 4 3 3 5 4 5 7 14 7 9 12 20 20 19 18 15 17 16 6 8 9 9 7 6 8 8
Wind_Direction
351 344 343 338 334 330 326 325 323 317 317 310 306 303 304 311 319 295 241 99 165 160 130 149 166 169 190 168 215 250 237 211 159 202 111 89 338 120 31 227 216 178 296 91 153
348 345 344 339 335 331 326 324 320 314 315 309 308 308 316 327 292 222 331 155 153 152 160 172 172 178 178 180 187 230 246 184 40 349 305 329 334 352 279 205 212 192 113 138 156
347 348 344 339 335 331 325 325 319 316 313 309 309 315 325 337 253 80 142 134 162 164 194 204 173 191 186 191 177 183 246 170 215 261 304 307 302 356 281 277 236 209 161 160 166
347 346 342 340 334 331 327 327 321 318 308 302 309 316 326 266 121 101 165 151 156 179 159 160 177 195 194 199 177 226 236 248 254 270 272 284 329 294 272 287 5 210 167 171 177
350 346 343 340 333 332 329 327 326 320 306 295 314 312 324 210 83 136 153 165 164 170 166 175 182 181 179 156 184 234 196 227 241 258 263 283 280 294 290 295 184 244 166 181 187
352 350 347 340 336 333 328 325 322 326 307 296 308 326 260 155 103 151 154 162 183 185 174 203 128 272 120 167 245 155 279 258 249 253 244 253 262 274 93 351 185 201 195 190 191
352 351 349 341 340 335 327 319 310 321 290 294 266 348 256 81 143 162 163 177 176 188 187 206 304 249 164 169 244 265 268 204 213 245 249 278 247 233 347 316 251 214 199 183 189
354 349 350 344 340 333 325 314 289 247 265 252 356 274 77 123 137 173 179 164 186 205 239 227 259 281 261 217 227 250 240 177 109 337 113 222 243 108 347 320 262 230 154 200 186
351 351 350 343 339 333 329 352 104 180 206 59 19 273 120 167 199 197 186 164 169 188 200 196 243 270 198 229 195 204 136 113 132 26 179 239 284 12 341 314 288 43 44 180 174
349 349 347 344 341 332 328 125 103 98 116 267 259 230 171 145 142 163 183 186 176 157 163 214 214 209 191 218 127 125 152 148 68 68 80 54 29 17 24 17 37 59 121 195 190
347 348 346 344 341 328 133 221 209 177 213 304 39 316 129 122 155 179 176 186 194 216 190 199 234 97 69 27 53 79 137 113 94 131 26 55 55 56 61 56 51 44 20 262 214
347 344 344 342 339 335 65 309 39 351 270 219 252 264 217 212 150 160 183 204 203 164 190 212 96 80 67 183 184 198 188 111 95 99 274 95 88 74 58 51 47 42 30 13 317
344 340 340 342 336 326 286 9 320 238 253 148 189 202 169 203 150 170 203 182 202 184 196 39 67 95 187 159 192 164 359 128 24 166 174 238 128 106 74 67 51 46 39 34 23
341 337 339 342 293 324 206 315 320 207 233 136 182 154 169 205 148 143 204 228 190 145 182 64 93 166 178 126 296 146 82 281 231 241 178 226 144 125 80 66 50 40 35 36 40
337 336 334 330 298 254 15 332 218 228 188 150 142 124 170 220 132 167 184 205 182 141 252 91 103 167 185 48 296 53 306 296 278 271 280 120 269 114 112 52 44 36 36 38 44
335 334 327 326 280 261 308 297 225 230 150 156 149 177 174 173 158 138 180 219 327 220 283 99 95 20 41 99 9 117 227 227 243 251 214 78 292 122 86 42 40 43 39 40 40
332 329 312 274 326 293 308 236 228 259 147 159 174 184 180 163 145 170 177 193 205 182 189 177 135 102 353 217 175 220 246 251 230 202 60 95 266 67 95 76 37 35 41 43 41
333 327 299 242 265 291 257 228 238 111 178 135 190 182 185 162 159 171 183 170 210 256 161 210 164 208 10 4 334 315 318 314 274 250 73 151 236 111 111 114 84 77 62 46 49
336 327 263 258 252 218 235 222 237 178 100 187 174 183 173 178 204 192 209 202 154 208 259 193 121 122 76 43 317 125 251 28 285 198 259 92 137 168 175 182 183 139 116 85 73
332 303 193 340 151 209 226 260 222 141 320 214 209 226 187 183 197 212 185 164 176 220 264 162 209 200 131 228 113 331 37 233 200 281 274 154 270 281 176 205 181 184 150 118 114
294 258 51 174 204 207 224 213 218 201 270 244 206 186 212 180 214 202 185 129 209 170 215 205 256 149 193 218 355 198 210 240 309 300 298 288 266 90 197 245 229 207 144 139 132
297 229 29 188 204 211 224 197 38 210 207 234 260 205 189 181 187 202 184 37 75 198 206 161 244 246 327 1 277 279 301 271 298 277 243 299 286 116 164 213 221 272 219 135 166
304 297 46 214 220 205 163 195 215 213 213 223 206 269 204 158 158 165 146 100 80 197 194 176 210 218 203 183 186 223 194 261 270 277 268 276 280 131 129 164 138 306 309 227 202
279 214 157 208 301 289 198 196 185 144 235 272 235 202 176 169 152 167 147 110 94 109 43 262 246 259 280 354 345 200 222 231 242 269 281 255 272 189 197 239 265 287 282 253 204
245 109 350 189 195 216 226 199 199 176 220 235 195 231 203 197 190 181 152 149 152 139 160 248 250 245 265 283 268 271 270 262 235 257 260 272 277 268 279 300 308 299 281 244 203
290 269 185 130 208 208 178 208 218 158 278 177 246 170 199 222 236 212 193 200 200 164 195 190 262 264 269 261 265 266 261 259 256 254 259 261 268 280 305 305 281 290 274 230 200
316 285 284 133 185 209 207 195 187 195 112 40 352 198 180 81 56 53 52 67 58 248 200 230 260 252 269 286 284 267 253 251 257 256 250 261 271 352 292 280 299 309 266 221 183